ORBCOMM FM108

Last updated on Fri Jun 19 2026 17:09:43 GMT+0000 (Coordinated Universal Time)

1 41187U 15081J 26169.04056137 .00000258 00000+0 90814-4 0 9996 2 41187 47.0030 178.1625 0002987 224.9174 135.1471 14.58870752560204
UTC large
Height (km)
Speed (km/s)
/
Latitude / Longitude
Inclination (degrees)
Orbital Period (minutes)
Azimuth
Elevation
Range (km)
Doppler Factor

Next 0 passes for location: London (51.5072 / 0.1276)

No passes found over London.
ORBCOMM FM108